When you browse on this site, cookies collect data to enhance your experience and personalize the content and advertising you see.
Visit our Privacy Policy to learn more. By continuing to use the site, you agree to this use of cookies and data.
  • In United Kingdom
  • List of Countries
  • For 7 days
  • Water Temperature
  • Weather Map
  • Weather Widgets
  • user-avatar
    Login

    Hourly Weather Cleckheaton

    Today, 21 September, Saturday

    Time Temperature Precipitation Wind Pressure Humidity
    00:00 +12°C° 0 mm 3 mps 755 mmHg 83%
    01:00 +11°C° 0 mm 3 mps 754 mmHg 84%
    02:00 +11°C° 0 mm 3 mps 754 mmHg 85%
    03:00 +11°C° 0 mm 3 mps 753 mmHg 86%
    04:00 +11°C° 0 mm 3 mps 753 mmHg 86%
    05:00 +11°C° 0 mm 3 mps 752 mmHg 87%
    06:00 +11°C° 0 mm 3 mps 752 mmHg 87%
    07:00 +12°C° 0 mm 3 mps 751 mmHg 80%
    08:00 +14°C° 0 mm 4 mps 751 mmHg 73%
    09:00 +15°C° 0 mm 4 mps 751 mmHg 67%
    10:00 +16°C° 0 mm 5 mps 750 mmHg 62%
    11:00 +19°C° 0 mm 5 mps 750 mmHg 57%
    12:00 +20°C° 0 mm 5 mps 750 mmHg 52%
    13:00 +20°C° 0 mm 5 mps 749 mmHg 52%
    14:00 +21°C° 0 mm 5 mps 748 mmHg 51%
    15:00 +21°C° 0 mm 5 mps 748 mmHg 50%
    16:00 +20°C° 0 mm 4 mps 748 mmHg 54%
    17:00 +19°C° 0 mm 4 mps 747 mmHg 58%
    18:00 +18°C° 0 mm 4 mps 747 mmHg 61%
    19:00 +17°C° 0 mm 3 mps 747 mmHg 65%
    20:00 +16°C° 0 mm 3 mps 746 mmHg 69%
    21:00 +16°C° 0 mm 2 mps 746 mmHg 73%
    22:00 +15°C° 0 mm 2 mps 746 mmHg 74%
    23:00 +15°C° 0 mm 2 mps 746 mmHg 75%

    Tomorrow, 22 September, Sunday

    Time Temperature Precipitation Wind Pressure Humidity
    00:00 +15°C° 0 mm 2 mps 745 mmHg 76%
    01:00 +15°C° 0 mm 2 mps 745 mmHg 78%
    02:00 +15°C° 0 mm 2 mps 744 mmHg 79%
    03:00 +14°C° 0 mm 2 mps 743 mmHg 81%
    04:00 +14°C° 0.1 mm 2 mps 743 mmHg 83%
    05:00 +14°C° 0.1 mm 2 mps 743 mmHg 85%
    06:00 +15°C° 0.1 mm 2 mps 742 mmHg 87%
    07:00 +16°C° 0.1 mm 2 mps 742 mmHg 85%
    08:00 +17°C° 0.1 mm 2 mps 742 mmHg 84%
    09:00 +18°C° 0.1 mm 2 mps 742 mmHg 82%
    10:00 +19°C° 0 mm 3 mps 742 mmHg 78%
    11:00 +21°C° 0 mm 3 mps 742 mmHg 74%
    12:00 +22°C° 0 mm 4 mps 742 mmHg 69%
    13:00 +21°C° 0.9 mm 4 mps 742 mmHg 73%
    14:00 +19°C° 0.9 mm 4 mps 741 mmHg 77%
    15:00 +17°C° 0.9 mm 5 mps 741 mmHg 81%
    16:00 +17°C° 0.1 mm 4 mps 741 mmHg 81%
    17:00 +17°C° 0.1 mm 3 mps 742 mmHg 81%
    18:00 +16°C° 0.1 mm 2 mps 742 mmHg 81%
    19:00 +16°C° 0 mm 2 mps 742 mmHg 83%
    20:00 +15°C° 0 mm 2 mps 742 mmHg 84%
    21:00 +15°C° 0 mm 2 mps 742 mmHg 86%
    22:00 +14°C° 0 mm 2 mps 742 mmHg 87%
    23:00 +14°C° 0 mm 2 mps 743 mmHg 88%

    Day after tomorrow, 23 September, Monday

    Time Temperature Precipitation Wind Pressure Humidity
    00:00 +14°C° 0 mm 1 mps 743 mmHg 89%
    01:00 +14°C° 0 mm 1 mps 743 mmHg 90%
    02:00 +13°C° 0 mm 1 mps 743 mmHg 91%
    03:00 +13°C° 0 mm 1 mps 743 mmHg 92%
    04:00 +13°C° 0 mm 2 mps 744 mmHg 91%
    05:00 +14°C° 0 mm 2 mps 744 mmHg 91%
    06:00 +13°C° 0 mm 3 mps 744 mmHg 91%
    07:00 +13°C° 0 mm 3 mps 744 mmHg 86%
    08:00 +14°C° 0 mm 3 mps 745 mmHg 81%
    09:00 +16°C° 0 mm 3 mps 745 mmHg 76%
    10:00 +15°C° 0 mm 4 mps 745 mmHg 70%
    11:00 +17°C° 0 mm 4 mps 745 mmHg 64%
    12:00 +18°C° 0 mm 4 mps 745 mmHg 58%
    13:00 +18°C° 0 mm 4 mps 744 mmHg 58%
    14:00 +18°C° 0 mm 4 mps 744 mmHg 58%
    15:00 +18°C° 0 mm 4 mps 744 mmHg 57%
    16:00 +17°C° 0.4 mm 4 mps 743 mmHg 66%
    17:00 +15°C° 0.4 mm 4 mps 743 mmHg 74%
    18:00 +14°C° 0.4 mm 4 mps 743 mmHg 83%
    19:00 +14°C° 0.7 mm 4 mps 742 mmHg 85%
    20:00 +14°C° 0.7 mm 5 mps 742 mmHg 87%
    21:00 +14°C° 0.7 mm 5 mps 742 mmHg 89%
    22:00 +14°C° 0.4 mm 4 mps 741 mmHg 90%
    23:00 +15°C° 0.4 mm 4 mps 741 mmHg 91%

    24 September, Tuesday

    Time Temperature Precipitation Wind Pressure Humidity
    00:00 +16°C° 0.4 mm 3 mps 741 mmHg 92%
    01:00 +16°C° 0.2 mm 3 mps 740 mmHg 93%
    02:00 +16°C° 0.2 mm 3 mps 740 mmHg 93%
    03:00 +16°C° 0.2 mm 3 mps 740 mmHg 93%
    04:00 +14°C° 0 mm 3 mps 740 mmHg 93%
    05:00 +14°C° 0 mm 3 mps 739 mmHg 93%
    06:00 +15°C° 0 mm 2 mps 739 mmHg 93%
    07:00 +16°C° 0.1 mm 3 mps 739 mmHg 90%
    08:00 +16°C° 0.1 mm 3 mps 738 mmHg 87%
    09:00 +17°C° 0.1 mm 4 mps 738 mmHg 84%
    10:00 +17°C° 0.7 mm 4 mps 738 mmHg 82%
    11:00 +17°C° 0.7 mm 4 mps 738 mmHg 80%
    12:00 +17°C° 0.7 mm 4 mps 737 mmHg 78%
    13:00 +18°C° 0.5 mm 4 mps 737 mmHg 74%
    14:00 +17°C° 0.5 mm 5 mps 737 mmHg 70%
    15:00 +19°C° 0.5 mm 5 mps 737 mmHg 65%
    16:00 +16°C° 0.5 mm 5 mps 736 mmHg 71%
    17:00 +15°C° 0.5 mm 4 mps 736 mmHg 77%
    18:00 +14°C° 0.5 mm 4 mps 736 mmHg 83%
    19:00 +14°C° 0.7 mm 4 mps 735 mmHg 84%
    20:00 +14°C° 0.7 mm 4 mps 735 mmHg 85%
    21:00 +14°C° 0.7 mm 5 mps 735 mmHg 86%
    22:00 +14°C° 0.1 mm 5 mps 734 mmHg 86%
    23:00 +14°C° 0.1 mm 6 mps 733 mmHg 85%

    25 September, Wednesday

    Time Temperature Precipitation Wind Pressure Humidity
    00:00 +13°C° 0.1 mm 6 mps 733 mmHg 85%
    01:00 +14°C° 1 mm 6 mps 733 mmHg 86%
    02:00 +14°C° 1 mm 6 mps 733 mmHg 88%
    03:00 +14°C° 1 mm 6 mps 732 mmHg 89%
    04:00 +14°C° 0.7 mm 7 mps 733 mmHg 88%
    05:00 +14°C° 0.7 mm 7 mps 733 mmHg 87%
    06:00 +12°C° 0.7 mm 8 mps 733 mmHg 86%
    07:00 +12°C° 0.1 mm 8 mps 734 mmHg 85%
    08:00 +12°C° 0.1 mm 7 mps 734 mmHg 84%
    09:00 +14°C° 0.1 mm 7 mps 735 mmHg 83%
    10:00 +14°C° 0.1 mm 7 mps 735 mmHg 80%
    11:00 +14°C° 0.1 mm 7 mps 736 mmHg 78%
    12:00 +15°C° 0.1 mm 6 mps 736 mmHg 76%
    13:00 +15°C° 0.2 mm 6 mps 737 mmHg 76%
    14:00 +15°C° 0.2 mm 6 mps 737 mmHg 77%
    15:00 +15°C° 0.2 mm 6 mps 737 mmHg 77%
    16:00 +14°C° 0.1 mm 5 mps 737 mmHg 79%
    17:00 +14°C° 0.1 mm 4 mps 737 mmHg 80%
    18:00 +14°C° 0.1 mm 4 mps 737 mmHg 82%
    19:00 +13°C° 0 mm 3 mps 738 mmHg 83%
    20:00 +13°C° 0 mm 3 mps 738 mmHg 84%
    21:00 +13°C° 0 mm 2 mps 738 mmHg 85%
    22:00 +13°C° 0 mm 2 mps 738 mmHg 86%
    23:00 +12°C° 0 mm 2 mps 737 mmHg 87%

    26 September, Thursday

    Time Temperature Precipitation Wind Pressure Humidity
    00:00 +12°C° 0 mm 2 mps 737 mmHg 88%
    01:00 +12°C° 0.3 mm 2 mps 736 mmHg 89%
    02:00 +12°C° 0.3 mm 3 mps 736 mmHg 90%
    03:00 +12°C° 0.3 mm 3 mps 735 mmHg 91%
    04:00 +13°C° 1.3 mm 3 mps 734 mmHg 93%
    05:00 +13°C° 1.3 mm 3 mps 734 mmHg 94%
    06:00 +13°C° 1.3 mm 3 mps 733 mmHg 95%
    07:00 +14°C° 0.1 mm 4 mps 733 mmHg 91%
    08:00 +14°C° 0.1 mm 5 mps 733 mmHg 86%
    09:00 +15°C° 0.1 mm 7 mps 733 mmHg 82%
    10:00 +15°C° 0.4 mm 7 mps 734 mmHg 77%
    11:00 +16°C° 0.4 mm 7 mps 734 mmHg 72%
    12:00 +16°C° 0.4 mm 7 mps 734 mmHg 67%
    13:00 +16°C° 0.1 mm 7 mps 734 mmHg 65%
    14:00 +16°C° 0.1 mm 7 mps 734 mmHg 63%
    15:00 +15°C° 0.1 mm 7 mps 734 mmHg 61%
    16:00 +15°C° 0.2 mm 7 mps 734 mmHg 65%
    17:00 +14°C° 0.2 mm 6 mps 735 mmHg 70%
    18:00 +13°C° 0.2 mm 5 mps 735 mmHg 75%
    19:00 +12°C° 0.2 mm 5 mps 735 mmHg 77%
    20:00 +12°C° 0.2 mm 5 mps 735 mmHg 79%
    21:00 +12°C° 0.2 mm 5 mps 735 mmHg 81%
    22:00 +12°C° 0.1 mm 5 mps 735 mmHg 82%
    23:00 +12°C° 0.1 mm 5 mps 735 mmHg 82%
    Show more